Location: Ravensburg
(47.7866°N, 9.6124°E)
Time: 10:35:06
(UTC+02:00)

METEOR M2 - Pass Details

Date: 17 March 2026
Orbit: 817 x 824 km, 98.5° (Epoch: 18 April)

Event Time Altitude Azimuth Distance (km) Brightness Sun altitude
Rises 03:18:39 0° 29° (NNE) 3,372 ? -31.1°
Reaches altitude 10° 03:22:04 10° 52° (NE) 2,433 ? -30.6°
Maximum altitude 03:25:10 15° 88° (E) 2,069 ? -30.2°
Drops below altitude 10° 03:28:15 10° 123° (ESE) 2,421 ? -29.8°
Sets 03:31:38 0° 146° (SE) 3,347 ? -29.3°
